#timestamp,LO_Frequency,Hit,StdDev 
1539705615.3,286046999.4,N
1539705635.2,286046999.7,N
1539705655.9,286047002.4,N
1539705675.7,286046998.2,N
1539705695.6,286046998.1,N
1539705715.4,286046997.0,N
1539705735.2,286046996.0,N
1539705755.1,286046997.2,N
1539705756.0,286046997.2,N
1539705775.8,286046998.5,N
1539705795.7,286046998.4,N
1539705815.5,286046998.8,N
1539705835.3,286047001.2,N
1539705855.2,286047002.1,N
1539705875.0,286047001.5,N
1539705875.9,286047001.5,N
1539705895.7,286047002.3,N
1539705915.6,286047005.7,N
1539705935.4,286047006.1,N
1539705955.3,286047007.7,N
1539705975.1,286047008.5,N
1539705976.0,286047008.5,N
1539705995.8,286047010.8,N
1539706015.7,286047006.4,N
1539706035.5,286047007.7,N
1539706055.3,286047012.0,N
1539706075.2,286047007.8,N
1539706095.0,286047011.9,N
1539706095.9,286047011.9,N
1539706115.8,286047011.5,N
1539706135.6,286047015.1,N
1539706155.4,286047012.5,N
1539706175.3,286047013.2,N
1539706195.1,286047015.3,N
1539706215.8,286047014.5,N
1539706235.7,286047015.9,N
1539706255.5,286047017.2,N
1539706275.4,286047017.2,N
1539706295.2,286047017.8,N
1539706315.0,286047019.3,Y
1539706315.9,286047019.3,P
1539706335.8,286047011.2,N
1539706355.6,286047011.2,N
1539706375.5,286047010.1,N
1539706395.3,286047010.5,N
1539706415.1,286047010.5,Y
1539706435.9,286046997.0,P
1539706455.7,286046995.1,N
1539706475.5,286046995.7,N
1539706495.4,286046995.7,N
1539706515.2,286046995.9,N
1539706535.1,286046996.4,N
1539706536.0,286046996.4,N
1539706555.8,286046993.3,N
1539706575.6,286046994.1,N
1539706595.5,286046993.5,N
1539706615.3,286046994.6,N
1539706635.1,286046994.1,N
1539706655.9,286046995.3,N
1539706675.7,286046996.7,N
1539706695.6,286046998.4,N
1539706715.4,286046998.8,N
1539706735.2,286046999.3,N
1539706755.1,286046999.6,N
1539706756.0,286046999.6,N
1539706775.8,286046996.5,N
1539706795.6,286046999.5,N
1539706815.5,286046997.9,N
1539706835.3,286046997.9,N
1539706855.2,286046997.5,N
1539706875.9,286046996.5,N
1539706895.7,286046996.9,N
1539706915.6,286046998.6,N
1539706935.4,286046999.6,N
1539706955.2,286046998.8,N
1539706975.1,286046997.8,N
1539706976.0,286046997.8,N
1539706995.8,286046995.2,N
1539707015.7,286046994.9,N
1539707035.5,286046993.7,Y
1539707055.3,286046997.3,P
1539707075.2,286046995.4,P
1539707095.0,286046996.6,P
1539707095.9,286046996.6,Y
1539707115.8,286047002.3,P
1539707135.6,286047000.6,N
1539707155.4,286046998.1,N
1539707175.3,286046999.5,N
1539707195.1,286046999.2,N
1539707215.8,286046997.4,N
1539707235.7,286046995.5,N
1539707255.5,286046993.5,Y
1539707275.4,286046999.5,P
1539707295.2,286046995.1,P
1539707315.0,286046994.2,P
1539707315.9,286046994.2,N
1539707335.8,286046994.4,N
1539707355.6,286046993.7,N
1539707375.5,286046996.0,N
1539707395.3,286046995.2,N
1539707415.1,286046996.7,N
1539707435.9,286046997.7,N
1539707455.7,286046995.2,N
1539707475.5,286046993.4,Y
1539707495.4,286046999.2,P
1539707515.2,286047000.3,N
1539707535.1,286047001.0,N
1539707536.0,286047001.0,N
1539707555.8,286046998.7,N
1539707575.6,286047000.2,N
1539707595.5,286046999.9,N
1539707615.3,286047002.5,N
1539707635.2,286047000.4,N
1539707655.9,286046999.7,N
1539707675.7,286047001.3,N
1539707695.6,286047004.2,N
1539707715.4,286047004.3,N
1539707735.2,286047003.3,N
1539707755.1,286047005.6,N
1539707756.0,286047005.6,N
1539707775.8,286047003.2,N
1539707795.7,286047005.6,N
1539707815.5,286047002.9,N
1539707835.3,286047005.6,N
1539707855.2,286047003.6,N
1539707875.0,286047003.6,N
1539707875.9,286047003.6,N
1539707895.7,286047003.8,N
1539707915.6,286047002.5,N
1539707935.4,286047004.4,N
1539707955.3,286047000.4,N
1539707975.1,286047004.3,N
1539707976.0,286047004.3,N
1539707995.8,286047004.3,N
1539708015.7,286047003.5,N
1539708035.5,286047004.4,N
1539708055.4,286047001.5,N
1539708075.2,286047004.2,N
1539708095.0,286047004.1,N
1539708095.9,286047004.1,N
1539708115.8,286047006.0,Y
1539708135.6,286046998.2,P
1539708155.4,286047000.7,N
1539708175.3,286047000.9,N
1539708195.1,286047000.9,N
1539708215.9,286047000.9,N
1539708235.7,286046998.1,N
1539708255.5,286046998.5,N
1539708275.4,286046998.9,N
1539708295.2,286046999.2,N
1539708315.0,286046998.6,N
1539708315.9,286046998.6,N
1539708335.8,286046999.5,N
1539708355.6,286046997.3,N
1539708375.5,286046997.8,N
1539708395.3,286046997.9,N
1539708415.1,286046997.0,N
1539708435.9,286046995.3,N
1539708455.7,286046995.6,N
1539708475.6,286046994.0,Y
1539708495.4,286046994.8,P
1539708515.2,286046994.1,N
1539708535.1,286046995.6,N
1539708536.0,286046995.6,N
1539708555.8,286046994.2,Y
1539708575.6,286046997.9,P
1539708595.5,286046995.6,P
1539708615.3,286046994.9,P
1539708635.2,286046997.2,N
1539708655.9,286046997.7,N
1539708675.7,286046998.2,N
1539708695.6,286046998.2,N
1539708715.4,286047000.2,N
1539708735.2,286047001.7,N
1539708755.1,286047002.1,N
1539708756.0,286047002.1,N
1539708775.8,286046999.9,N
1539708795.7,286047002.4,N
1539708815.5,286047002.5,N
1539708835.3,286047002.7,N
1539708855.2,286047001.7,N
1539708875.0,286047000.6,N
1539708875.9,286047000.6,N
1539708895.8,286046999.9,N
1539708915.6,286046998.5,N
1539708935.4,286046999.6,N
1539708955.3,286046997.5,N
1539708975.1,286046997.7,N
1539708995.8,286046996.8,N
1539709015.7,286047001.2,N
1539709035.5,286047000.4,N
1539709055.3,286047000.2,N
1539709075.2,286047002.0,N
1539709095.0,286047004.4,N
1539709095.9,286047004.4,N
1539709115.8,286047003.7,N
1539709135.6,286047002.5,N
1539709155.4,286047001.3,N
1539709175.3,286047000.0,N
1539709195.1,286046999.8,N
